Simultaneous Nadir Overpasses (SNOs) Predictions

Prediction of SNOs between NOAA-19 and TERRA Satellite Orbit:

Table of predicted SNOs for the next 14.0 days since TLE Epoch: 12/14/2014
Index Date (NOAA-19) Time (NOAA-19) Lat,Lon (NOAA-19) SZA (NOAA-19 ) Date (TERRA) Time (TERRA) Lat,Lon (TERRA) SZA (TERRA ) Distance(km) Time Diff (sec)
1 12/14/2014 22:17:01 71.34,-151.85 94.51 12/14/2014 22:17:56 71.35,-151.77 94.53 3.00 55
2 12/14/2014 23:08:04 -71.20, 15.62 85.62 12/14/2014 23:07:26 -71.23, 15.67 85.60 3.25 38
3 12/17/2014 03:51:42 -71.29, -55.40 85.44 12/17/2014 03:51:47 -71.26, -55.37 85.47 3.31 5
4 12/17/2014 04:42:30 70.79, 112.73 94.09 12/17/2014 04:41:19 70.90, 111.71 94.17 39.16 71
5 12/19/2014 08:35:19 -71.33,-126.34 85.34 12/19/2014 08:36:10 -71.31,-126.38 85.36 2.10 51
6 12/19/2014 09:26:15 71.23, 41.08 94.57 12/19/2014 09:25:37 71.23, 41.12 94.56 1.70 38
7 12/21/2014 14:09:53 71.32, -29.94 94.68 12/21/2014 14:10:02 71.30, -29.86 94.66 3.55 9
8 12/21/2014 15:00:49 -70.86, 138.11 85.78 12/21/2014 14:59:37 -70.92, 137.17 85.73 34.92 72
9 12/23/2014 18:53:30 71.36,-100.89 94.70 12/23/2014 18:54:30 71.35,-100.91 94.69 1.40 60
10 12/23/2014 19:44:32 -71.22, 66.60 85.44 12/23/2014 19:44:00 -71.25, 66.56 85.42 3.10 32
11 12/26/2014 00:28:10 -71.34, -4.48 85.38 12/26/2014 00:28:30 -71.32, -4.46 85.40 2.12 20




NCC Satellite Simultaneous Nadir Overpasses (SNOs) Prediction Service
